Waarnemingen

Advertentie
Mijn weer
Moron de la Frontera, Spanje (8397): temperatuur & dauwpunt: 14.01.2021 19:00:00 - 20.01.2021 19:00:00 (CET)Moron de la Frontera, Spanje (8397): windsnelheid: 14.01.2021 19:00:00 - 20.01.2021 19:00:00 (CET)Moron de la Frontera, Spanje (8397): windrichting: 14.01.2021 19:00:00 - 20.01.2021 19:00:00 (CET)Moron de la Frontera, Spanje (8397): luchtdruk: 14.01.2021 19:00:00 - 20.01.2021 19:00:00 (CET)Moron de la Frontera, Spanje (8397): zicht: 14.01.2021 19:00:00 - 20.01.2021 19:00:00 (CET)
Datum & Tijd tt [°C] td [°C] ff [km/u] ff [kn] dd ppp [hPa] vv [km]
20.01.2021 19:00:00 13,6 11,8 18 10 ZW 1013,9 6
20.01.2021 18:00:00 - - - - - - -
20.01.2021 17:00:00 - - - - - - -
20.01.2021 16:00:00 13,3 11,9 18 10 ZZW 1013,0 25
20.01.2021 15:00:00 - - - - - - -
20.01.2021 14:00:00 - - - - - - -
20.01.2021 13:00:00 13,2 11,3 34 18 ZW 1014,7 6
20.01.2021 12:00:00 - - - - - - -
20.01.2021 11:00:00 - - - - - - -
20.01.2021 10:00:00 12,3 10,4 26 14 ZZW 1015,3 5
20.01.2021 09:00:00 - - - - - - -
20.01.2021 08:00:00 - - - - - - -
20.01.2021 07:00:00 12,8 8,9 18 10 ZZW 1016,3 10
20.01.2021 06:00:00 - - - - - - -
20.01.2021 05:00:00 - - - - - - -
20.01.2021 04:00:00 11,8 7,9 9 5 ZZW 1018,9 10
20.01.2021 03:00:00 - - - - - - -
20.01.2021 02:00:00 - - - - - - -
20.01.2021 01:00:00 10,3 8,1 8 4 ZW 1021,0 10
20.01.2021 00:00:00 - - - - - - -
19.01.2021 23:00:00 - - - - - - -
19.01.2021 22:00:00 8,5 6,0 4 2 ZZO 1021,9 9
19.01.2021 21:00:00 - - - - - - -
19.01.2021 20:00:00 - - - - - - -
19.01.2021 19:00:00 12,7 5,8 0 0 N 1022,9 10
19.01.2021 18:00:00 - - - - - - -
19.01.2021 17:00:00 - - - - - - -
19.01.2021 16:00:00 16,1 6,0 11 6 ZW 1022,8 9
19.01.2021 15:00:00 - - - - - - -
19.01.2021 14:00:00 - - - - - - -
19.01.2021 13:00:00 11,2 9,1 4 2 O 1026,3 5
19.01.2021 12:00:00 - - - - - - -
19.01.2021 11:00:00 - - - - - - -
19.01.2021 10:00:00 4,6 3,9 2 1 NO 1027,1 0,2
19.01.2021 09:00:00 - - - - - - -
19.01.2021 08:00:00 - - - - - - -
19.01.2021 07:00:00 5,1 4,2 4 2 Z 1026,7 0,6
19.01.2021 06:00:00 - - - - - - -
19.01.2021 05:00:00 - - - - - - -
19.01.2021 04:00:00 5,3 4,4 5 3 ZZO 1027,2 2,0
19.01.2021 03:00:00 - - - - - - -
19.01.2021 02:00:00 - - - - - - -
19.01.2021 01:00:00 5,9 4,7 4 2 Z 1027,9 3,9
19.01.2021 00:00:00 - - - - - - -
18.01.2021 23:00:00 - - - - - - -
18.01.2021 22:00:00 7,3 5,3 5 3 ZZO 1026,5 12
18.01.2021 21:00:00 - - - - - - -
18.01.2021 20:00:00 - - - - - - -
18.01.2021 19:00:00 12,4 6,5 11 6 NW 1026,3 16
18.01.2021 18:00:00 - - - - - - -
18.01.2021 17:00:00 - - - - - - -
18.01.2021 16:00:00 17,1 7,5 2 1 W 1025,6 16
18.01.2021 15:00:00 - - - - - - -
18.01.2021 14:00:00 - - - - - - -
18.01.2021 13:00:00 14,2 7,3 5 3 WZW 1027,6 14
18.01.2021 12:00:00 - - - - - - -
18.01.2021 11:00:00 - - - - - - -
18.01.2021 10:00:00 - - - - - - -
18.01.2021 09:00:00 - - - - - - -
18.01.2021 08:00:00 - - - - - - -
18.01.2021 07:00:00 - - - - - - -
18.01.2021 06:00:00 - - - - - - -
18.01.2021 05:00:00 - - - - - - -
18.01.2021 04:00:00 - - - - - - -
18.01.2021 03:00:00 - - - - - - -
18.01.2021 02:00:00 - - - - - - -
18.01.2021 01:00:00 - - - - - - -
18.01.2021 00:00:00 - - - - - - -
17.01.2021 23:00:00 - - - - - - -
17.01.2021 22:00:00 5,4 1,7 4 2 Z 1027,4 15
17.01.2021 21:00:00 - - - - - - -
17.01.2021 20:00:00 - - - - - - -
17.01.2021 19:00:00 13,3 2,2 0 0 O 1026,7 25
17.01.2021 18:00:00 - - - - - - -
17.01.2021 17:00:00 - - - - - - -
17.01.2021 16:00:00 17,0 3,3 5 3 O 1027,1 25
17.01.2021 15:00:00 - - - - - - -
17.01.2021 14:00:00 - - - - - - -
17.01.2021 13:00:00 13,6 4,2 2 1 ONO 1029,4 20
17.01.2021 12:00:00 - - - - - - -
17.01.2021 11:00:00 - - - - - - -
17.01.2021 10:00:00 3,7 2,1 4 2 O 1029,9 6
17.01.2021 09:00:00 - - - - - - -
17.01.2021 08:00:00 - - - - - - -
17.01.2021 07:00:00 - - - - - - -
17.01.2021 06:00:00 - - - - - - -
17.01.2021 05:00:00 - - - - - - -
17.01.2021 04:00:00 - - - - - - -
17.01.2021 03:00:00 - - - - - - -
17.01.2021 02:00:00 - - - - - - -
17.01.2021 01:00:00 2,9 -0,5 5 3 ZO 1030,0 25
17.01.2021 00:00:00 - - - - - - -
16.01.2021 23:00:00 - - - - - - -
16.01.2021 22:00:00 5,8 -0,5 4 2 NNO 1029,0 25
16.01.2021 21:00:00 - - - - - - -
16.01.2021 20:00:00 - - - - - - -
16.01.2021 19:00:00 12,1 -0,4 4 2 ZO 1027,6 25
16.01.2021 18:00:00 - - - - - - -
16.01.2021 17:00:00 - - - - - - -
16.01.2021 16:00:00 16,7 -0,5 18 10 ONO 1026,7 25
16.01.2021 15:00:00 - - - - - - -
16.01.2021 14:00:00 - - - - - - -
16.01.2021 13:00:00 11,4 1,4 16 9 ONO 1028,7 15
16.01.2021 12:00:00 - - - - - - -
16.01.2021 11:00:00 - - - - - - -
16.01.2021 10:00:00 3,7 2,7 4 2 O 1028,9 6
16.01.2021 09:00:00 - - - - - - -
16.01.2021 08:00:00 - - - - - - -
16.01.2021 07:00:00 1,1 -0,1 0 0 N 1027,8 3,5
16.01.2021 06:00:00 - - - - - - -
16.01.2021 05:00:00 - - - - - - -
16.01.2021 04:00:00 2,3 1,0 5 3 ONO 1027,8 5
16.01.2021 03:00:00 - - - - - - -
16.01.2021 02:00:00 - - - - - - -
16.01.2021 01:00:00 3,1 1,6 5 3 ZZO 1027,6 8
16.01.2021 00:00:00 - - - - - - -
15.01.2021 23:00:00 - - - - - - -
15.01.2021 22:00:00 4,6 2,1 5 3 Z 1027,4 7
15.01.2021 21:00:00 - - - - - - -
15.01.2021 20:00:00 - - - - - - -
15.01.2021 19:00:00 11,6 3,9 0 0 N 1026,6 20
15.01.2021 18:00:00 - - - - - - -
15.01.2021 17:00:00 - - - - - - -
15.01.2021 16:00:00 14,2 3,7 8 4 NO 1026,5 15
15.01.2021 15:00:00 - - - - - - -
15.01.2021 14:00:00 - - - - - - -
15.01.2021 13:00:00 10,6 3,2 9 5 ONO 1028,5 10
15.01.2021 12:00:00 - - - - - - -
15.01.2021 11:00:00 - - - - - - -
15.01.2021 10:00:00 1,7 0,8 0 0 N 1029,4 2,5
15.01.2021 09:00:00 - - - - - - -
15.01.2021 08:00:00 - - - - - - -
15.01.2021 07:00:00 0,2 -0,8 0 0 N 1028,1 4,0
15.01.2021 06:00:00 - - - - - - -
15.01.2021 05:00:00 - - - - - - -
15.01.2021 04:00:00 2,1 0,9 4 2 ONO 1028,3 1,5
15.01.2021 03:00:00 - - - - - - -
15.01.2021 02:00:00 - - - - - - -
15.01.2021 01:00:00 3,0 1,7 5 3 Z 1028,2 5
15.01.2021 00:00:00 - - - - - - -
14.01.2021 23:00:00 - - - - - - -
14.01.2021 22:00:00 4,2 1,9 4 2 Z 1028,0 10
14.01.2021 21:00:00 - - - - - - -
14.01.2021 20:00:00 - - - - - - -
14.01.2021 19:00:00 9,7 3,0 0 0 N 1027,4 15

tt = temperatuur
td = dauwpunt
ff = windsnelheid
dd = windrichting
ppp = luchtdruk
vv = zicht

Weerstations in de omgeving